Theta_e
309 309 309 309 309 309 309 309 309 309 309 309 310 310 310 309 308 307 307 303 306 304 311 311 312 309 310 312 313 315 321 323 324 324 324 321 321 321 320 322 321 323 326 326 329
308 309 309 309 309 308 308 309 310 309 309 310 310 310 310 309 308 309 306 304 305 306 309 311 311 310 313 312 313 317 318 320 320 321 323 321 318 318 319 320 321 321 321 325 335
308 308 308 308 309 309 309 310 310 310 310 310 310 310 310 309 312 318 315 305 308 307 311 309 307 310 313 313 313 314 317 315 316 319 318 317 317 318 318 320 320 320 320 320 329
307 308 308 307 308 309 310 310 310 309 310 308 309 309 310 310 319 315 313 308 313 311 309 309 310 311 312 315 313 316 315 316 316 316 317 317 317 317 317 318 318 319 319 319 320
308 310 309 307 307 307 308 308 309 310 309 309 308 308 309 311 312 317 314 305 309 313 311 310 310 311 313 312 312 315 314 314 315 315 314 314 314 315 316 317 317 317 317 319 320
309 310 309 307 306 306 306 307 309 310 309 309 308 310 312 313 314 316 308 314 313 311 309 311 311 311 311 311 312 312 312 313 313 314 313 314 315 314 316 317 317 317 318 318 320
309 307 308 307 305 305 306 307 308 309 310 307 308 311 311 309 308 317 313 310 310 309 312 315 315 313 312 312 311 312 313 313 314 314 314 314 315 315 316 315 317 318 318 319 321
310 309 308 308 306 304 305 306 307 307 310 308 310 312 309 305 313 315 309 310 310 312 314 314 315 311 312 311 311 313 312 314 314 313 314 314 315 316 315 315 316 316 316 317 318
308 309 310 307 308 304 305 306 310 309 311 312 311 312 314 313 316 315 310 314 313 313 314 313 311 310 310 312 313 312 315 314 314 313 313 314 314 315 314 314 316 316 316 316 317
308 308 308 309 306 305 304 312 311 313 312 312 312 315 314 317 317 317 314 314 316 312 311 311 311 312 311 313 313 312 312 312 313 313 313 314 315 315 315 314 316 315 316 317 317
307 307 307 308 309 305 305 310 313 313 315 317 316 312 314 316 316 314 315 315 314 312 313 311 313 313 313 312 310 311 313 314 314 314 313 316 316 316 316 315 316 316 317 317 318
306 306 307 308 309 306 306 311 314 314 317 314 315 314 314 315 315 316 313 314 314 313 311 312 312 312 310 311 311 312 313 314 314 314 313 315 316 316 316 315 316 316 317 317 318
306 306 307 308 308 307 308 312 312 312 317 316 315 316 316 315 315 316 312 312 312 312 312 312 312 311 311 312 313 313 314 315 314 314 313 314 315 315 315 314 315 315 316 316 317
305 306 307 308 308 306 309 311 312 312 321 320 317 316 316 316 316 316 312 313 312 313 311 312 312 311 312 312 312 314 313 314 314 314 315 313 315 315 315 315 315 316 316 317 316
305 305 306 307 309 307 311 311 313 314 326 321 317 315 316 316 314 317 313 313 314 312 312 313 312 311 312 313 312 313 312 313 313 314 314 315 315 315 314 315 315 316 316 316 317
304 305 305 308 308 309 309 312 314 322 325 323 315 316 316 316 315 313 315 313 314 314 312 313 311 312 313 312 312 313 313 313 311 313 316 316 316 315 315 316 316 316 315 315 315
304 306 306 307 309 308 309 316 320 323 319 319 317 315 315 316 316 315 314 315 315 315 315 314 314 313 312 313 314 313 314 316 317 317 318 317 317 316 316 316 316 315 316 317 317
305 308 307 309 307 308 311 320 319 315 317 316 315 317 318 315 314 315 314 315 314 314 315 316 317 314 313 314 315 315 315 317 319 319 318 316 317 317 315 315 314 316 317 317 317
308 307 309 310 312 308 317 320 317 318 315 315 315 318 316 316 316 317 316 316 315 312 315 314 315 313 314 315 314 316 315 315 316 317 318 317 317 317 317 317 317 318 318 318 318
306 305 309 310 311 310 313 312 314 315 314 314 316 316 319 318 320 320 319 318 318 316 314 316 318 316 315 314 313 314 315 319 319 321 323 320 319 319 318 317 317 318 317 315 317
306 310 308 311 312 317 320 315 316 314 313 315 316 315 314 314 315 316 316 313 313 314 315 315 315 317 316 317 317 316 317 318 319 321 324 324 321 319 317 317 318 317 316 315 316
306 312 309 311 318 312 317 312 312 313 313 312 312 313 315 315 316 316 315 315 311 312 314 315 317 319 318 317 315 316 317 319 326 327 324 325 323 317 317 317 317 316 315 315 317
308 307 308 309 317 314 313 313 312 313 313 313 315 314 313 315 317 315 314 313 312 313 315 315 317 321 319 317 316 318 318 319 320 320 324 325 321 315 316 315 315 316 315 315 317
308 312 309 308 309 313 314 316 317 314 313 312 314 313 313 314 313 315 314 313 311 311 312 314 316 318 319 319 318 321 318 317 320 324 320 319 319 316 314 314 315 316 316 316 317
305 307 305 310 310 308 311 312 312 313 313 312 314 315 313 316 314 316 313 311 309 309 310 313 318 315 315 314 313 313 313 313 313 315 319 316 315 313 313 315 317 316 315 315 315
308 308 306 308 307 310 310 311 312 313 313 314 314 313 312 314 312 315 312 310 311 309 311 313 315 314 313 310 310 311 311 311 311 312 315 314 313 313 314 314 315 315 313 312 314
302 303 306 307 307 309 311 311 311 310 309 310 312 312 312 312 310 308 307 309 310 310 310 311 313 313 312 310 311 313 312 312 312 312 314 316 315 315 316 316 315 314 312 311 311
Wind_Speed
17 17 16 15 14 14 12 13 13 13 13 13 12 12 12 13 14 8 8 9 3 13 8 8 6 6 3 3 3 2 5 9 9 6 3 1 3 2 5 4 8 8 5 5 9
18 17 16 16 15 14 13 12 12 13 13 12 12 11 11 11 11 12 11 9 8 19 10 8 8 8 4 4 3 4 5 8 3 4 3 2 3 6 5 7 5 7 11 6 6
18 17 16 15 14 13 13 13 12 12 12 11 11 10 9 9 4 3 2 11 13 14 8 5 10 4 4 3 4 4 7 5 4 8 6 4 5 3 5 10 4 7 13 11 4
21 18 17 15 14 14 13 13 12 10 11 10 9 8 8 3 3 1 2 18 15 14 9 8 5 5 5 7 4 5 6 6 4 6 6 11 4 4 8 12 12 14 13 13 13
23 21 19 16 14 12 12 13 12 11 10 9 6 5 3 3 6 3 7 18 15 13 9 6 8 5 6 6 7 6 4 5 8 9 9 9 10 9 7 14 13 11 10 13 14
26 24 21 18 14 12 11 11 11 11 9 8 4 2 1 3 2 3 14 15 11 9 8 8 8 4 5 4 6 4 4 6 6 9 6 7 12 4 5 10 10 9 8 8 12
36 32 23 20 16 13 10 10 10 10 8 5 2 1 2 5 3 8 11 7 13 8 5 5 4 3 7 5 2 3 4 4 9 5 6 6 11 7 8 5 10 8 9 4 8
37 37 33 21 17 12 11 11 12 10 7 3 3 1 6 2 1 9 10 5 8 8 2 2 5 2 1 5 3 3 2 5 2 3 3 7 13 9 3 2 6 8 8 8 4
37 39 38 30 19 13 10 11 9 3 4 3 2 2 5 3 4 9 13 3 6 5 4 3 4 2 3 4 3 0 6 7 6 4 2 6 1 4 4 2 5 6 8 9 9
37 39 40 39 23 13 8 4 7 9 6 4 4 4 6 3 3 6 14 7 2 5 5 2 2 3 3 5 5 4 4 4 6 1 2 8 10 12 10 5 6 6 7 7 9
37 40 40 40 31 14 2 3 3 2 5 7 3 4 4 4 4 6 7 9 2 3 3 2 5 8 9 5 2 1 4 8 10 10 6 11 11 12 10 8 10 8 5 7 9
38 40 41 38 32 10 3 3 1 0 7 14 14 9 9 4 2 3 10 6 4 6 4 3 11 10 4 5 5 5 6 9 10 11 6 10 12 10 10 11 10 9 8 9 7
39 41 41 39 22 3 3 4 3 6 4 3 5 5 5 9 5 6 12 6 4 7 8 9 3 5 10 6 6 6 7 5 7 4 4 7 11 10 8 8 10 12 11 10 10
40 43 39 37 4 4 4 3 8 5 3 3 4 2 6 5 4 8 12 8 4 9 7 8 7 10 8 9 11 11 13 12 9 6 11 2 10 11 9 11 10 11 10 11 13
41 44 38 27 11 3 2 4 2 3 4 2 3 9 5 7 2 4 5 6 10 7 6 3 5 8 9 15 10 9 4 5 7 9 5 10 7 12 6 11 14 15 14 12 10
46 47 41 9 7 7 3 2 3 2 3 2 4 4 6 6 1 4 4 2 1 8 7 12 1 4 6 3 9 3 7 3 2 5 12 15 12 8 11 12 14 11 8 9 12
54 47 17 6 1 5 4 3 1 3 5 3 3 0 4 5 6 4 6 10 9 5 9 9 15 10 9 12 12 7 9 7 7 8 13 9 13 14 10 13 16 12 11 12 11
54 18 6 3 3 4 1 2 3 2 2 4 4 6 1 3 1 2 4 6 4 8 11 7 9 7 7 13 11 8 8 9 10 8 9 1 8 6 7 10 6 4 9 9 10
39 12 9 15 4 2 2 2 1 1 4 6 5 2 1 5 5 7 6 3 3 4 5 4 5 2 6 11 8 12 9 8 13 6 7 9 12 9 9 6 3 6 9 11 11
20 10 8 9 8 2 2 1 1 2 5 3 2 4 1 2 2 9 8 11 9 10 5 3 9 5 4 2 4 7 5 4 5 8 15 8 7 7 7 7 3 7 10 16 13
5 2 15 7 4 3 2 2 3 6 6 3 1 2 4 3 2 2 5 4 2 7 8 5 4 10 6 6 13 7 6 4 4 3 7 12 7 3 1 1 6 6 12 14 16
6 2 16 5 2 2 2 5 8 9 5 5 4 4 1 2 3 2 6 4 4 7 8 4 4 8 13 9 4 5 8 4 7 5 4 6 9 1 2 3 7 16 15 16 11
4 3 10 8 2 3 3 4 7 11 8 6 4 3 3 3 3 10 10 10 9 7 3 3 3 4 4 5 4 8 7 1 3 2 7 7 6 6 6 16 14 14 17 14 9
3 4 4 5 3 4 5 3 6 7 4 6 4 3 2 7 6 4 4 6 9 10 8 3 5 11 12 7 2 3 7 6 5 4 12 13 21 20 16 14 16 14 12 11 7
4 3 2 4 4 6 3 3 7 5 2 2 3 6 4 4 4 6 10 12 11 13 13 4 5 9 13 15 14 15 18 17 19 19 18 21 22 20 19 12 10 9 11 13 8
3 3 2 1 4 4 2 4 7 7 6 3 3 2 4 4 6 5 11 10 8 6 5 11 4 6 12 12 17 20 19 19 19 19 19 20 23 15 5 7 8 9 10 12 13
2 0 2 2 4 3 2 4 6 8 6 7 8 5 8 11 12 12 14 18 17 12 8 7 7 6 12 7 6 10 13 14 10 10 10 12 9 5 9 9 11 13 15 16 16
Wind_Direction
343 338 333 325 318 312 310 308 308 305 304 302 304 305 306 307 308 296 244 231 202 205 155 140 143 151 131 130 115 151 200 213 214 192 182 94 15 125 317 310 331 336 312 18 128
345 342 337 328 322 314 310 307 305 304 302 301 301 304 306 315 305 258 259 216 221 165 164 159 151 147 135 140 144 190 217 214 218 206 226 229 316 340 309 304 296 308 353 19 145
347 344 338 332 322 316 310 305 307 305 302 302 302 306 310 321 282 231 317 167 153 156 154 130 134 139 149 162 163 149 224 195 221 236 264 269 278 258 284 289 250 298 308 310 257
352 343 338 333 324 316 309 305 306 308 305 303 304 309 310 284 139 334 250 164 146 150 138 123 121 141 149 170 162 199 219 212 223 226 255 269 288 272 251 263 269 269 281 285 286
354 345 338 333 327 320 317 312 306 303 303 303 303 311 321 247 259 348 148 159 164 163 157 142 154 150 176 168 154 207 221 213 238 248 253 267 258 255 252 262 278 271 259 259 268
2 350 343 334 328 320 317 315 310 306 304 299 299 299 300 262 325 154 150 154 166 160 160 162 173 179 122 145 194 187 224 257 259 245 237 244 265 188 247 264 275 287 280 265 257
8 6 350 342 330 319 312 309 307 300 293 289 262 270 269 245 309 174 165 172 170 162 156 193 167 178 146 144 149 145 251 264 240 241 242 190 259 244 250 290 282 293 303 296 260
5 6 3 345 336 322 310 307 297 285 274 255 172 243 254 193 130 182 179 169 184 197 183 170 171 97 336 119 76 196 217 246 175 199 247 205 263 274 274 335 300 321 321 316 284
3 4 3 359 336 324 320 313 312 263 191 170 174 231 265 299 219 208 193 195 186 213 231 90 137 96 135 161 185 116 244 236 283 204 235 220 296 310 297 273 291 308 314 312 311
359 359 358 360 346 326 346 23 83 106 114 152 263 274 250 183 189 187 199 176 146 129 121 149 85 162 129 196 236 177 213 226 253 111 211 282 287 286 280 277 288 287 293 301 306
355 352 351 350 346 321 355 147 204 165 205 214 184 270 286 303 263 201 163 147 136 76 170 54 216 218 222 209 167 209 261 275 277 278 303 283 282 279 282 289 286 289 274 287 282
349 348 345 344 337 313 211 218 191 80 289 231 246 255 263 306 304 173 154 166 167 197 139 195 241 233 202 197 219 233 266 271 284 278 205 276 272 269 272 278 275 284 268 263 258
345 345 341 340 336 16 221 235 186 314 275 276 195 211 213 178 221 211 177 156 181 179 196 224 195 173 194 203 225 231 223 233 259 314 236 278 272 261 249 248 259 264 281 281 257
341 342 339 335 329 340 249 179 294 197 297 246 213 222 153 172 219 200 181 174 188 224 187 246 231 222 209 230 214 246 214 242 259 264 277 231 285 264 257 250 252 264 259 254 284
337 336 335 331 287 240 164 314 125 176 302 122 122 156 153 199 118 160 175 180 200 176 190 206 178 186 209 233 189 261 186 251 263 264 266 247 259 276 223 247 253 257 258 265 265
335 331 329 316 242 241 276 340 156 229 250 66 118 158 159 214 243 122 164 141 227 214 222 257 236 253 249 175 198 285 277 270 196 252 253 258 248 262 256 258 275 265 256 277 295
334 331 315 248 227 147 360 153 195 230 343 29 20 169 223 200 219 213 164 188 213 194 228 242 245 245 227 261 250 239 272 276 253 230 259 280 262 263 259 255 267 293 307 310 317
336 351 27 16 263 261 244 112 210 4 1 356 336 317 267 29 96 181 177 216 218 239 271 258 265 209 188 215 257 229 243 255 268 260 274 219 255 264 251 276 271 355 342 334 334
344 5 16 348 167 161 128 163 251 21 334 327 319 278 77 49 49 12 4 328 48 172 227 211 245 276 263 273 247 258 233 271 261 260 262 251 257 264 247 252 354 354 360 354 343
339 328 7 11 50 88 88 245 302 337 331 299 266 11 166 19 343 351 344 354 333 356 7 285 279 254 284 239 179 227 154 210 213 269 269 248 267 259 263 266 326 335 351 345 331
350 3 358 354 351 52 72 18 335 3 357 328 311 110 95 48 347 244 208 76 32 353 343 328 252 247 316 253 269 244 228 229 284 238 265 280 263 122 255 266 315 342 328 330 329
344 50 348 12 38 35 54 334 343 351 6 19 36 36 220 124 341 333 264 237 356 0 325 352 293 255 257 269 288 256 274 258 231 230 248 285 272 7 351 352 339 320 322 320 330
5 302 346 5 45 31 358 7 19 18 359 4 249 357 3 181 212 250 250 247 312 333 274 295 225 262 251 241 254 257 254 213 21 48 217 257 263 164 311 324 325 323 316 315 312
9 356 356 35 23 13 2 339 319 353 355 1 338 324 221 236 200 271 268 310 293 262 259 118 256 245 260 293 319 288 273 249 220 240 274 253 278 287 299 312 317 328 336 331 328
18 63 29 351 8 342 322 320 298 301 260 254 264 230 197 239 238 232 258 269 277 279 265 222 248 256 265 265 267 265 258 259 250 254 256 276 283 291 298 305 307 311 324 333 315
26 358 28 351 308 352 1 317 304 310 354 310 243 295 294 237 227 265 290 281 266 256 221 161 260 253 267 268 266 267 262 259 256 257 258 270 276 299 293 284 293 307 320 315 302
55 267 274 322 353 327 337 332 325 347 302 259 297 299 268 275 276 279 275 265 255 258 250 209 240 256 276 282 296 264 264 242 241 245 255 262 290 309 297 300 314 311 305 295 293